Weather History for Lovelock, NV

Change the Weather History Date:

Tuesday, January 1, 2013

  Actual Average Record
Temperature  
Mean Temperature 12 °F -  
Max Temperature 23 °F 37 °F 64 °F (1997)
Min Temperature -2 °F 13 °F -11 °F (1979)
Degree Days  
Heating Degree Days 53    
Moisture  
Dew Point 5 °F    
Average Humidity 81    
Maximum Humidity 91    
Minimum Humidity 63    
Precipitation  
Precipitation 0.00 in - - ()
Sea Level Pressure  
Sea Level Pressure 30.59 in    
Wind  
Wind Speed 6 mph (ENE)    
Max Wind Speed 12 mph    
Max Gust Speed -    
Visibility 10 miles    
Events      
Averages and records for this station are not official NWS values.
T = Trace of Precipitation, MM = Missing Value Source: NWS Daily Summary

Daily Weather History Graph

Daily Weather History Graph

Search for Another Location

Airport:

Trip Planner

Search our weather history database for the weather conditions in past years. The results will help you decide how hot, cold, wet, or windy it might be!

Date:

Astronomy

Jan. 01, 2013 Rise Set
Actual Time 7:16 AM PST 4:39 PM PST
Civil Twilight 6:45 AM PST 5:10 PM PST
Nautical Twilight 6:12 AM PST 5:44 PM PST
Astronomical Twilight 5:39 AM PST 6:17 PM PST
Moon 9:15 PM PST (1/1) 9:30 AM PST (1/1)
Length of Visible Light 10h 24m
Length of Day
9h 23m
Waning Gibbous, 82% of the Moon is Illuminated
Jan 1
Waning Gibbous
Jan 4
Last Quarter
Jan 11
New
Jan 18
First Quarter
Jan 26
Full

Hourly Weather History & Observations

Time (PST) Temp. Windchill Dew Point Humidity Pressure Visibility Wind Dir Wind Speed Gust Speed Precip Events Conditions
12:53 AM 7.0 °F -5.7 °F 3.9 °F 87% 30.43 in 10.0 mi ENE 8.1 mph - N/A   Clear
1:53 AM 6.1 °F -4.3 °F 3.9 °F 91% 30.45 in 10.0 mi North 5.8 mph - N/A   Clear
2:53 AM 8.1 °F -7.0 °F 5.0 °F 87% 30.45 in 10.0 mi NNE 11.5 mph - N/A   Clear
3:53 AM 8.1 °F -4.3 °F 3.9 °F 83% 30.47 in 10.0 mi NNE 8.1 mph - N/A   Clear
4:53 AM 9.0 °F -4.2 °F 6.1 °F 88% 30.48 in 10.0 mi North 9.2 mph - N/A   Clear
5:53 AM 8.1 °F -5.3 °F 3.9 °F 83% 30.53 in 10.0 mi NNE 9.2 mph - N/A   Clear
6:53 AM 1.0 °F -8.7 °F -2.0 °F 87% 30.58 in 10.0 mi East 4.6 mph - N/A   Clear
7:53 AM 1.0 °F -6.7 °F -0.9 °F 91% 30.60 in 10.0 mi West 3.5 mph - N/A   Clear
8:53 AM 8.1 °F -0.5 °F 5.0 °F 87% 30.60 in 10.0 mi SSE 4.6 mph - N/A   Clear
9:53 AM 10.9 °F 4.7 °F 6.1 °F 81% 30.61 in 10.0 mi ESE 3.5 mph - N/A   Clear
10:53 AM 15.1 °F - 8.1 °F 74% 30.61 in 10.0 mi Calm Calm - N/A   Clear
11:53 AM 19.0 °F 6.8 °F 10.0 °F 68% 30.60 in 10.0 mi NE 11.5 mph - N/A   Clear
12:53 PM 19.9 °F 12.1 °F 10.9 °F 68% 30.58 in 10.0 mi NE 5.8 mph - N/A   Clear
1:53 PM 19.9 °F 14.9 °F 12.0 °F 71% 30.57 in 10.0 mi South 3.5 mph - N/A   Clear
2:53 PM 23.0 °F - 12.0 °F 63% 30.57 in 10.0 mi Calm Calm - N/A   Clear
3:53 PM 21.9 °F 15.7 °F 12.0 °F 66% 30.59 in 10.0 mi East 4.6 mph - N/A   Clear
4:53 PM 16.0 °F 6.3 °F 9.0 °F 74% 30.62 in 10.0 mi NE 6.9 mph - N/A   Clear
5:53 PM 14.0 °F 8.2 °F 8.1 °F 77% 30.64 in 10.0 mi NE 3.5 mph - N/A   Clear
6:53 PM 3.9 °F -9.4 °F 1.9 °F 91% 30.70 in 10.0 mi SSE 8.1 mph - N/A   Clear
7:53 PM 5.0 °F -2.1 °F 1.9 °F 87% 30.70 in 10.0 mi ESE 3.5 mph - N/A   Clear
8:53 PM 3.0 °F - -0.0 °F 87% 30.67 in 10.0 mi Calm Calm - N/A   Clear
9:53 PM 1.9 °F -7.6 °F -0.9 °F 88% 30.68 in 10.0 mi NE 4.6 mph - N/A   Clear
10:53 PM 1.0 °F -6.7 °F -2.9 °F 83% 30.68 in 10.0 mi NNE 3.5 mph - N/A   Clear
11:53 PM -2.9 °F -13.3 °F -5.1 °F 90% 30.67 in 10.0 mi SE 4.6 mph - N/A   Clear